Location: Newark
(49.3000°N, 9.4667°E)
Time: 04:09:51
(UTC+00:00)

Tiros 1 - Pass Details

Date: 01 June 2019
Orbit: 631 x 664 km, 48.4° (Epoch: 16 June)

Event Time Altitude Azimuth Distance (km) Brightness Sun altitude
Rises 10:42:03 0° 279° (W) 2,928 10.4 61.7°
Reaches altitude 10° 10:44:23 10° 276° (W) 2,023 9.7 61.9°
Maximum altitude 10:48:59 65° 196° (SSW) 705 9.5 62.1°
Drops below altitude 10° 10:53:38 10° 115° (ESE) 2,038 10.1 62.3°
Sets 10:55:59 0° 112° (ESE) 2,952 10.7 62.3°
